Time,TemperatureF,DewpointF,PressureIn,WindDirection,WindDirectionDegrees,WindSpeedMPH,WindSpeedGustMPH,Humidity,HourlyPrecipIn,Conditions,Clouds,dailyrainin,SoftwareType,DateUTC
2013-08-02 00:01:00,85.6,68.1,29.90,SSW,196,4.6,4.6,56,0.00,CLR,,0.00,WeatherDisplay:10.37,2013-08-02 05:01:00,
2013-08-02 00:06:00,85.4,67.9,29.90,SW,231,3.0,3.0,56,0.00,CLR,,0.00,WeatherDisplay:10.37,2013-08-02 05:06:00,
2013-08-02 00:11:00,85.2,68.2,29.90,SSW,193,2.3,2.3,57,0.00,CLR,,0.00,WeatherDisplay:10.37,2013-08-02 05:11:00,
2013-08-02 00:16:00,85.0,68.1,29.89,South,173,3.0,3.0,57,0.00,CLR,,0.00,WeatherDisplay:10.37,2013-08-02 05:16:00,
2013-08-02 00:21:00,84.8,67.9,29.89,SSE,154,3.5,3.5,57,0.00,CLR,,0.00,WeatherDisplay:10.37,2013-08-02 05:21:00,
2013-08-02 00:26:00,84.6,68.2,29.89,SSW,200,3.0,3.0,58,0.00,CLR,,0.00,WeatherDisplay:10.37,2013-08-02 05:26:00,
2013-08-02 00:31:00,84.5,68.1,29.89,South,188,2.3,2.3,58,0.00,CLR,,0.00,WeatherDisplay:10.37,2013-08-02 05:31:00,
2013-08-02 00:36:00,84.4,68.0,29.89,ESE,121,3.5,3.5,58,0.00,CLR,,0.00,WeatherDisplay:10.37,2013-08-02 05:36:00,
2013-08-02 00:41:00,84.2,67.8,29.89,SSE,150,3.5,3.5,58,0.00,CLR,,0.00,WeatherDisplay:10.37,2013-08-02 05:41:00,
2013-08-02 00:46:00,84.1,68.2,29.90,SSE,167,2.3,2.3,59,0.00,CLR,,0.00,WeatherDisplay:10.37,2013-08-02 05:46:00,
2013-08-02 00:51:00,83.9,68.0,29.90,SSW,207,2.3,2.3,59,0.00,CLR,,0.00,WeatherDisplay:10.37,2013-08-02 05:51:00,
2013-08-02 00:56:00,83.9,68.0,29.90,SSW,207,1.2,1.2,59,0.00,CLR,,0.00,WeatherDisplay:10.37,2013-08-02 05:56:00,
2013-08-02 01:01:00,83.9,68.0,29.90,SSW,197,1.2,1.2,59,0.00,CLR,,0.00,WeatherDisplay:10.37,2013-08-02 06:01:00,
2013-08-02 01:06:00,83.7,68.3,29.90,SSW,200,1.2,1.2,60,0.00,CLR,,0.00,WeatherDisplay:10.37,2013-08-02 06:06:00,
2013-08-02 01:11:00,83.6,68.2,29.90,SSW,200,1.2,1.2,60,0.00,CLR,,0.00,WeatherDisplay:10.37,2013-08-02 06:11:00,
2013-08-02 01:16:00,83.5,68.2,29.89,SSW,205,1.2,0.0,60,0.00,CLR,,0.00,WeatherDisplay:10.37,2013-08-02 06:16:00,
2013-08-02 01:21:00,83.2,67.4,29.89,South,171,3.5,3.5,59,0.00,CLR,,0.00,WeatherDisplay:10.37,2013-08-02 06:21:00,
2013-08-02 01:26:00,83.0,67.2,29.89,SSE,163,2.3,2.3,59,0.00,CLR,,0.00,WeatherDisplay:10.37,2013-08-02 06:26:00,
2013-08-02 01:31:00,82.7,66.9,29.89,SSW,192,4.6,4.6,59,0.00,CLR,,0.00,WeatherDisplay:10.37,2013-08-02 06:31:00,
2013-08-02 01:36:00,82.5,65.7,29.89,WSW,252,2.3,2.3,57,0.00,CLR,,0.00,WeatherDisplay:10.37,2013-08-02 06:36:00,
2013-08-02 01:41:00,82.3,66.0,29.89,SSE,152,4.6,4.6,58,0.00,CLR,,0.00,WeatherDisplay:10.37,2013-08-02 06:41:00,
2013-08-02 01:46:00,82.2,65.4,29.89,South,188,3.5,3.5,57,0.00,CLR,,0.00,WeatherDisplay:10.37,2013-08-02 06:46:00,
2013-08-02 01:51:00,82.1,65.4,29.89,South,173,3.5,3.5,57,0.00,CLR,,0.00,WeatherDisplay:10.37,2013-08-02 06:51:00,
2013-08-02 01:56:00,82.0,65.3,29.89,SSW,196,2.3,2.3,57,0.00,CLR,,0.00,WeatherDisplay:10.37,2013-08-02 06:56:00,
2013-08-02 02:01:00,81.9,65.2,29.89,South,188,1.2,0.0,57,0.00,CLR,,0.00,WeatherDisplay:10.37,2013-08-02 07:01:00,
2013-08-02 02:06:00,82.0,65.3,29.88,South,184,2.3,2.3,57,0.00,CLR,,0.00,WeatherDisplay:10.37,2013-08-02 07:06:00,
2013-08-02 02:11:00,81.9,65.2,29.88,South,184,0.0,0.0,57,0.00,CLR,,0.00,WeatherDisplay:10.37,2013-08-02 07:11:00,
2013-08-02 02:16:00,81.7,66.0,29.88,South,184,1.2,1.2,59,0.00,CLR,,0.00,WeatherDisplay:10.37,2013-08-02 07:16:00,
2013-08-02 02:21:00,81.5,65.3,29.88,South,183,0.0,0.0,58,0.00,CLR,,0.00,WeatherDisplay:10.37,2013-08-02 07:21:00,
2013-08-02 02:26:00,81.3,65.6,29.88,South,183,0.0,0.0,59,0.00,CLR,,0.00,WeatherDisplay:10.37,2013-08-02 07:26:00,
2013-08-02 02:31:00,81.0,65.8,29.88,South,183,2.3,2.3,60,0.00,CLR,,0.00,WeatherDisplay:10.37,2013-08-02 07:31:00,
2013-08-02 02:36:00,80.8,65.6,29.88,SSW,200,0.0,0.0,60,0.00,CLR,,0.00,WeatherDisplay:10.37,2013-08-02 07:36:00,
2013-08-02 02:41:00,80.5,65.3,29.88,SSW,200,0.0,0.0,60,0.00,CLR,,0.00,WeatherDisplay:10.37,2013-08-02 07:41:00,
2013-08-02 02:46:00,80.3,65.6,29.88,SSW,200,0.0,0.0,61,0.00,CLR,,0.00,WeatherDisplay:10.37,2013-08-02 07:46:00,
2013-08-02 02:51:00,80.2,66.0,29.89,SSW,202,1.2,1.2,62,0.00,CLR,,0.00,WeatherDisplay:10.37,2013-08-02 07:51:00,
2013-08-02 02:56:00,80.0,65.8,29.89,SSW,202,1.2,1.2,62,0.00,CLR,,0.00,WeatherDisplay:10.37,2013-08-02 07:56:00,
2013-08-02 03:01:00,79.8,65.6,29.89,SSW,202,0.0,0.0,62,0.00,CLR,,0.00,WeatherDisplay:10.37,2013-08-02 08:01:00,
2013-08-02 03:06:00,79.7,66.0,29.89,SSW,202,1.2,1.2,63,0.00,CLR,,0.00,WeatherDisplay:10.37,2013-08-02 08:06:00,
2013-08-02 03:11:00,79.5,65.8,29.89,SSW,194,0.0,0.0,63,0.00,CLR,,0.00,WeatherDisplay:10.37,2013-08-02 08:11:00,
2013-08-02 03:16:00,79.3,65.6,29.89,SSW,194,1.0,1.0,63,0.00,CLR,,0.00,WeatherDisplay:10.37,2013-08-02 08:16:00,
2013-08-02 03:21:00,79.2,66.0,29.89,SSW,194,1.2,1.2,64,0.00,CLR,,0.00,WeatherDisplay:10.37,2013-08-02 08:21:00,
2013-08-02 03:26:00,79.3,66.1,29.88,SSW,194,0.0,0.0,64,0.00,CLR,,0.00,WeatherDisplay:10.37,2013-08-02 08:26:00,
2013-08-02 03:31:00,79.2,66.4,29.88,SSW,194,0.0,0.0,65,0.00,CLR,,0.00,WeatherDisplay:10.37,2013-08-02 08:31:00,
2013-08-02 03:36:00,79.0,66.2,29.89,SSW,194,0.0,0.0,65,0.00,CLR,,0.00,WeatherDisplay:10.37,2013-08-02 08:36:00,
2013-08-02 03:41:00,78.9,66.1,29.88,SSW,210,1.2,1.2,65,0.00,CLR,,0.00,WeatherDisplay:10.37,2013-08-02 08:41:00,
2013-08-02 03:46:00,78.8,66.0,29.88,SSW,210,0.0,0.0,65,0.00,CLR,,0.00,WeatherDisplay:10.37,2013-08-02 08:46:00,
2013-08-02 03:51:00,78.5,66.6,29.89,SW,219,1.2,0.0,67,0.00,CLR,,0.00,WeatherDisplay:10.37,2013-08-02 08:51:00,
2013-08-02 03:56:00,78.4,66.1,29.88,SW,219,0.0,0.0,66,0.00,CLR,,0.00,WeatherDisplay:10.37,2013-08-02 08:56:00,
2013-08-02 04:01:00,78.2,66.3,29.89,SW,219,0.0,0.0,67,0.00,CLR,,0.00,WeatherDisplay:10.37,2013-08-02 09:01:00,
2013-08-02 04:06:00,78.0,66.6,29.88,SW,219,2.3,0.0,68,0.00,CLR,,0.00,WeatherDisplay:10.37,2013-08-02 09:06:00,
2013-08-02 04:11:00,77.7,66.3,29.88,SSW,198,2.3,2.3,68,0.00,CLR,,0.00,WeatherDisplay:10.37,2013-08-02 09:11:00,
2013-08-02 04:16:00,77.6,66.2,29.88,South,180,1.2,1.2,68,0.00,CLR,,0.00,WeatherDisplay:10.37,2013-08-02 09:16:00,
2013-08-02 04:22:00,77.5,66.5,29.88,South,180,2.3,2.3,69,0.00,CLR,,0.00,WeatherDisplay:10.37,2013-08-02 09:22:00,
2013-08-02 04:27:00,77.4,66.4,29.88,SSW,197,1.2,1.2,69,0.00,CLR,,0.00,WeatherDisplay:10.37,2013-08-02 09:27:00,
2013-08-02 04:32:00,77.4,66.8,29.88,SSE,168,2.3,2.3,70,0.00,CLR,,0.00,WeatherDisplay:10.37,2013-08-02 09:32:00,
2013-08-02 04:37:00,77.4,66.8,29.88,South,182,2.3,2.3,70,0.00,CLR,,0.00,WeatherDisplay:10.37,2013-08-02 09:37:00,
2013-08-02 04:42:00,77.4,66.8,29.88,SSW,193,2.3,0.0,70,0.00,CLR,,0.00,WeatherDisplay:10.37,2013-08-02 09:42:00,
2013-08-02 04:47:00,77.3,66.7,29.89,SSW,192,1.2,0.0,70,0.00,CLR,,0.00,WeatherDisplay:10.37,2013-08-02 09:47:00,
2013-08-02 04:52:00,77.3,66.7,29.88,SSW,192,0.0,0.0,70,0.00,CLR,,0.00,WeatherDisplay:10.37,2013-08-02 09:52:00,
2013-08-02 04:57:00,77.3,66.7,29.88,SSW,192,1.2,1.2,70,0.00,CLR,,0.00,WeatherDisplay:10.37,2013-08-02 09:57:00,
2013-08-02 05:02:00,77.1,67.0,29.88,SSW,192,1.2,0.0,71,0.00,CLR,,0.00,WeatherDisplay:10.37,2013-08-02 10:02:00,
2013-08-02 05:07:00,76.9,66.8,29.88,SSW,193,1.2,0.0,71,0.00,CLR,,0.00,WeatherDisplay:10.37,2013-08-02 10:07:00,
2013-08-02 05:12:00,76.8,67.1,29.88,SSW,193,0.0,0.0,72,0.00,CLR,,0.00,WeatherDisplay:10.37,2013-08-02 10:12:00,
2013-08-02 05:17:00,76.6,66.9,29.88,SSW,193,0.0,0.0,72,0.00,CLR,,0.00,WeatherDisplay:10.37,2013-08-02 10:17:00,
2013-08-02 05:22:00,76.5,67.2,29.88,SSW,194,2.3,2.3,73,0.00,CLR,,0.00,WeatherDisplay:10.37,2013-08-02 10:22:00,
2013-08-02 05:27:00,76.4,67.5,29.88,SSW,194,2.3,2.3,74,0.00,CLR,,0.00,WeatherDisplay:10.37,2013-08-02 10:27:00,
2013-08-02 05:32:00,76.3,67.4,29.88,South,182,3.5,3.5,74,0.00,CLR,,0.00,WeatherDisplay:10.37,2013-08-02 10:32:00,
2013-08-02 05:37:00,76.2,68.1,29.88,SSW,211,2.3,2.3,76,0.00,CLR,,0.00,WeatherDisplay:10.37,2013-08-02 10:37:00,
2013-08-02 05:42:00,76.0,68.3,29.88,SSW,207,3.5,3.5,77,0.00,CLR,,0.00,WeatherDisplay:10.37,2013-08-02 10:42:00,
2013-08-02 05:47:00,76.0,68.3,29.88,SSW,207,2.3,2.3,77,0.00,CLR,,0.00,WeatherDisplay:10.37,2013-08-02 10:47:00,
2013-08-02 05:52:00,76.0,68.6,29.88,SSW,197,1.2,1.3,78,0.00,CLR,,0.00,WeatherDisplay:10.37,2013-08-02 10:52:00,
2013-08-02 05:57:00,75.9,68.9,29.88,SSW,197,2.3,2.3,79,0.00,CLR,,0.00,WeatherDisplay:10.37,2013-08-02 10:57:00,
2013-08-02 06:02:00,75.9,68.9,29.89,SSW,198,2.3,2.3,79,0.00,CLR,,0.00,WeatherDisplay:10.37,2013-08-02 11:02:00,
2013-08-02 06:07:00,75.9,68.9,29.89,SSW,198,1.0,1.0,79,0.00,CLR,,0.00,WeatherDisplay:10.37,2013-08-02 11:07:00,
2013-08-02 06:12:00,75.9,69.3,29.89,SSW,198,1.2,1.2,80,0.00,CLR,,0.00,WeatherDisplay:10.37,2013-08-02 11:12:00,
2013-08-02 06:17:00,75.8,69.2,29.89,SSW,198,0.0,0.0,80,0.00,CLR,,0.00,WeatherDisplay:10.37,2013-08-02 11:17:00,
2013-08-02 06:22:00,75.7,69.1,29.89,SSW,198,0.0,0.0,80,0.00,CLR,,0.00,WeatherDisplay:10.37,2013-08-02 11:22:00,
2013-08-02 06:27:00,75.6,69.0,29.89,SSW,198,0.0,0.0,80,0.00,CLR,,0.00,WeatherDisplay:10.37,2013-08-02 11:27:00,
2013-08-02 06:32:00,75.5,69.3,29.89,SSW,198,0.0,0.0,81,0.00,CLR,,0.00,WeatherDisplay:10.37,2013-08-02 11:32:00,
2013-08-02 06:37:00,75.3,68.7,29.89,SSW,198,0.0,0.0,80,0.00,CLR,,0.00,WeatherDisplay:10.37,2013-08-02 11:37:00,
2013-08-02 06:42:00,75.2,69.0,29.89,SSW,198,0.0,0.0,81,0.00,CLR,,0.00,WeatherDisplay:10.37,2013-08-02 11:42:00,
2013-08-02 06:47:00,75.0,68.8,29.90,SSW,198,0.0,0.0,81,0.00,CLR,,0.00,WeatherDisplay:10.37,2013-08-02 11:47:00,
2013-08-02 06:52:00,74.8,68.6,29.89,SSW,198,0.0,0.0,81,0.00,CLR,,0.00,WeatherDisplay:10.37,2013-08-02 11:52:00,
2013-08-02 06:57:00,74.6,68.4,29.89,SSW,198,0.0,0.0,81,0.00,CLR,,0.00,WeatherDisplay:10.37,2013-08-02 11:57:00,
2013-08-02 07:02:00,74.6,68.7,29.89,SSW,198,1.2,0.0,82,0.00,CLR,,0.00,WeatherDisplay:10.37,2013-08-02 12:02:00,
2013-08-02 07:07:00,74.5,68.6,29.89,SSW,198,0.0,0.0,82,0.00,CLR,,0.00,WeatherDisplay:10.37,2013-08-02 12:07:00,
2013-08-02 07:12:00,74.5,69.0,29.90,SSW,198,0.0,0.0,83,0.00,CLR,,0.00,WeatherDisplay:10.37,2013-08-02 12:12:00,
2013-08-02 07:17:00,74.5,69.0,29.90,SSW,198,0.0,0.0,83,0.00,CLR,,0.00,WeatherDisplay:10.37,2013-08-02 12:17:00,
2013-08-02 07:22:00,74.6,69.1,29.90,SSW,198,1.0,1.0,83,0.00,CLR,,0.00,WeatherDisplay:10.37,2013-08-02 12:22:00,
2013-08-02 07:27:00,74.7,69.2,29.90,SSW,198,1.2,0.0,83,0.00,CLR,,0.00,WeatherDisplay:10.37,2013-08-02 12:27:00,
2013-08-02 07:32:00,74.8,69.6,29.90,SSW,198,1.2,0.0,84,0.00,CLR,,0.00,WeatherDisplay:10.37,2013-08-02 12:32:00,
2013-08-02 07:37:00,74.9,69.7,29.90,SSW,198,0.0,0.0,84,0.00,CLR,,0.00,WeatherDisplay:10.37,2013-08-02 12:37:00,
2013-08-02 07:42:00,75.0,69.8,29.90,SSW,198,0.0,0.0,84,0.00,CLR,,0.00,WeatherDisplay:10.37,2013-08-02 12:42:00,
2013-08-02 07:47:00,75.1,69.9,29.91,SSW,198,0.0,0.0,84,0.00,CLR,,0.00,WeatherDisplay:10.37,2013-08-02 12:47:00,
2013-08-02 07:52:00,75.2,70.0,29.91,SSW,198,0.0,0.0,84,0.00,CLR,,0.00,WeatherDisplay:10.37,2013-08-02 12:52:00,
2013-08-02 07:57:00,75.4,70.2,29.91,SSW,198,2.3,0.0,84,0.00,CLR,,0.00,WeatherDisplay:10.37,2013-08-02 12:57:00,
2013-08-02 08:02:00,75.5,70.3,29.91,SSW,198,2.3,0.0,84,0.00,CLR,,0.00,WeatherDisplay:10.37,2013-08-02 13:02:00,
2013-08-02 08:07:00,75.7,70.5,29.91,SSW,198,2.3,2.3,84,0.00,CLR,,0.00,WeatherDisplay:10.37,2013-08-02 13:07:00,
2013-08-02 08:12:00,75.9,70.7,29.92,South,186,3.5,3.5,84,0.00,CLR,,0.00,WeatherDisplay:10.37,2013-08-02 13:12:00,
2013-08-02 08:17:00,76.1,70.9,29.92,SSW,205,3.5,3.5,84,0.00,CLR,,0.00,WeatherDisplay:10.37,2013-08-02 13:17:00,
2013-08-02 08:22:00,76.4,71.2,29.92,SSW,198,1.2,1.2,84,0.00,CLR,,0.00,WeatherDisplay:10.37,2013-08-02 13:22:00,
2013-08-02 08:27:00,76.7,71.5,29.92,South,179,5.8,5.8,84,0.00,CLR,,0.00,WeatherDisplay:10.37,2013-08-02 13:27:00,
2013-08-02 08:32:00,77.0,71.8,29.92,SSE,159,1.2,1.2,84,0.00,CLR,,0.00,WeatherDisplay:10.37,2013-08-02 13:32:00,
2013-08-02 08:37:00,77.2,72.0,29.92,SSW,208,5.8,5.8,84,0.00,CLR,,0.00,WeatherDisplay:10.37,2013-08-02 13:37:00,
2013-08-02 08:38:00,77.2,72.0,29.92,SSW,208,3.5,3.5,84,0.00,CLR,,0.00,WeatherDisplay:10.37,2013-08-02 13:38:00,
2013-08-02 08:43:00,77.5,71.9,29.92,SSE,156,3.5,3.5,83,0.00,CLR,,0.00,WeatherDisplay:10.37,2013-08-02 13:43:00,
2013-08-02 08:48:00,77.7,72.5,29.92,SW,222,4.0,4.0,84,0.00,CLR,,0.00,WeatherDisplay:10.37,2013-08-02 13:48:00,
2013-08-02 08:53:00,78.0,72.8,29.92,SSE,150,2.3,2.3,84,0.00,CLR,,0.00,WeatherDisplay:10.37,2013-08-02 13:53:00,
2013-08-02 08:58:00,78.3,72.7,29.92,SSE,155,3.5,3.5,83,0.00,CLR,,0.00,WeatherDisplay:10.37,2013-08-02 13:58:00,
2013-08-02 09:02:00,78.5,72.9,29.92,SSW,212,9.2,9.2,83,0.00,CLR,,0.00,WeatherDisplay:10.37,2013-08-02 14:02:00,
2013-08-02 09:08:00,78.7,72.7,29.92,South,180,3.5,3.5,82,0.00,CLR,,0.00,WeatherDisplay:10.37,2013-08-02 14:08:00,
2013-08-02 09:13:00,79.0,73.0,29.92,SW,225,3.5,3.5,82,0.00,CLR,,0.00,WeatherDisplay:10.37,2013-08-02 14:13:00,
2013-08-02 09:18:00,79.2,73.2,29.92,SSW,208,4.0,4.0,82,0.00,CLR,,0.00,WeatherDisplay:10.37,2013-08-02 14:18:00,
2013-08-02 09:23:00,79.5,73.2,29.92,SSW,213,3.5,3.5,81,0.00,CLR,,0.00,WeatherDisplay:10.37,2013-08-02 14:23:00,
2013-08-02 09:28:00,79.7,73.3,29.92,SSW,199,5.8,5.8,81,0.00,CLR,,0.00,WeatherDisplay:10.37,2013-08-02 14:28:00,
2013-08-02 09:32:00,80.0,73.3,29.92,South,183,5.8,5.8,80,0.00,CLR,,0.00,WeatherDisplay:10.37,2013-08-02 14:32:00,
2013-08-02 09:38:00,80.2,73.5,29.92,SSE,167,2.3,2.3,80,0.00,CLR,,0.00,WeatherDisplay:10.37,2013-08-02 14:38:00,
2013-08-02 09:43:00,80.5,73.4,29.92,West,263,4.6,4.6,79,0.00,CLR,,0.00,WeatherDisplay:10.37,2013-08-02 14:43:00,
2013-08-02 09:48:00,80.8,73.7,29.92,SSW,204,4.6,4.6,79,0.00,CLR,,0.00,WeatherDisplay:10.37,2013-08-02 14:48:00,
2013-08-02 09:53:00,81.1,73.6,29.93,South,186,3.5,3.5,78,0.00,CLR,,0.00,WeatherDisplay:10.37,2013-08-02 14:53:00,
2013-08-02 09:58:00,81.4,73.5,29.93,SSW,196,3.5,3.5,77,0.00,CLR,,0.00,WeatherDisplay:10.37,2013-08-02 14:58:00,
2013-08-02 10:03:00,81.7,73.8,29.93,SSW,199,6.9,6.9,77,0.00,CLR,,0.00,WeatherDisplay:10.37,2013-08-02 15:03:00,
2013-08-02 10:08:00,82.0,73.3,29.93,SW,225,3.5,3.5,75,0.00,CLR,,0.00,WeatherDisplay:10.37,2013-08-02 15:08:00,
2013-08-02 10:13:00,82.1,73.4,29.93,South,181,4.6,4.6,75,0.00,CLR,,0.00,WeatherDisplay:10.37,2013-08-02 15:13:00,
2013-08-02 10:18:00,82.5,73.0,29.93,West,263,4.6,4.6,73,0.00,CLR,,0.00,WeatherDisplay:10.37,2013-08-02 15:18:00,
2013-08-02 10:23:00,82.8,73.3,29.93,SW,232,3.5,3.5,73,0.00,CLR,,0.00,WeatherDisplay:10.37,2013-08-02 15:23:00,
2013-08-02 10:28:00,83.2,73.6,29.92,SSE,157,5.0,5.0,73,0.00,CLR,,0.00,WeatherDisplay:10.37,2013-08-02 15:28:00,
2013-08-02 10:33:00,83.5,73.5,29.92,West,264,6.9,6.9,72,0.00,CLR,,0.00,WeatherDisplay:10.37,2013-08-02 15:33:00,
2013-08-02 10:38:00,83.8,73.4,29.92,SSE,168,6.9,6.9,71,0.00,CLR,,0.00,WeatherDisplay:10.37,2013-08-02 15:38:00,
2013-08-02 10:43:00,84.1,72.8,29.93,SSW,193,4.6,4.6,69,0.00,CLR,,0.00,WeatherDisplay:10.37,2013-08-02 15:43:00,
2013-08-02 10:48:00,84.5,73.2,29.92,WNW,290,3.5,3.5,69,0.00,CLR,,0.00,WeatherDisplay:10.37,2013-08-02 15:48:00,
2013-08-02 10:53:00,84.9,72.7,29.92,South,175,7.0,7.0,67,0.00,CLR,,0.00,WeatherDisplay:10.37,2013-08-02 15:53:00,
2013-08-02 10:58:00,85.4,72.7,29.92,SE,126,6.0,6.0,66,0.00,CLR,,0.00,WeatherDisplay:10.37,2013-08-02 15:58:00,
2013-08-02 11:03:00,85.7,72.6,29.92,South,173,6.9,6.9,65,0.00,CLR,,0.00,WeatherDisplay:10.37,2013-08-02 16:03:00,
2013-08-02 11:08:00,85.9,72.3,29.92,SSW,201,5.8,5.8,64,0.00,CLR,,0.00,WeatherDisplay:10.37,2013-08-02 16:08:00,
2013-08-02 11:13:00,86.3,72.7,29.93,WSW,248,5.8,5.8,64,0.00,CLR,,0.00,WeatherDisplay:10.37,2013-08-02 16:13:00,
2013-08-02 11:18:00,86.6,71.5,29.92,WSW,252,5.0,5.0,61,0.00,CLR,,0.00,WeatherDisplay:10.37,2013-08-02 16:18:00,
2013-08-02 11:23:00,86.9,70.8,29.92,South,172,7.0,7.0,59,0.00,CLR,,0.00,WeatherDisplay:10.37,2013-08-02 16:23:00,
2013-08-02 11:28:00,87.2,71.6,29.92,SSW,200,6.9,6.9,60,0.00,CLR,,0.00,WeatherDisplay:10.37,2013-08-02 16:28:00,
2013-08-02 11:33:00,87.5,71.4,29.92,SSE,162,8.1,8.1,59,0.00,CLR,,0.00,WeatherDisplay:10.37,2013-08-02 16:33:00,
2013-08-02 11:38:00,87.6,71.0,29.92,WNW,285,4.6,4.6,58,0.00,CLR,,0.00,WeatherDisplay:10.37,2013-08-02 16:38:00,
2013-08-02 11:43:00,87.9,71.3,29.92,SSW,194,5.8,5.8,58,0.00,CLR,,0.00,WeatherDisplay:10.37,2013-08-02 16:43:00,
2013-08-02 11:48:00,88.5,70.8,29.92,SSE,157,4.6,4.6,56,0.00,CLR,,0.00,WeatherDisplay:10.37,2013-08-02 16:48:00,
2013-08-02 11:53:00,89.0,70.7,29.92,South,182,8.1,8.1,55,0.00,CLR,,0.00,WeatherDisplay:10.37,2013-08-02 16:53:00,
2013-08-02 11:58:00,89.3,71.5,29.91,SSW,213,4.0,4.0,56,0.00,CLR,,0.00,WeatherDisplay:10.37,2013-08-02 16:58:00,
2013-08-02 12:03:00,89.7,70.3,29.92,SW,227,5.8,5.8,53,0.00,CLR,,0.00,WeatherDisplay:10.37,2013-08-02 17:03:00,
2013-08-02 12:08:00,89.9,71.0,29.92,SSW,194,2.3,2.3,54,0.00,CLR,,0.00,WeatherDisplay:10.37,2013-08-02 17:08:00,
2013-08-02 12:13:00,90.4,70.9,29.92,SE,136,6.9,6.9,53,0.00,CLR,,0.00,WeatherDisplay:10.37,2013-08-02 17:13:00,
2013-08-02 12:18:00,91.0,70.4,29.92,SW,227,3.5,3.5,51,0.00,CLR,,0.00,WeatherDisplay:10.37,2013-08-02 17:18:00,
2013-08-02 12:23:00,91.5,70.2,29.92,SSW,194,6.9,6.9,50,0.00,CLR,,0.00,WeatherDisplay:10.37,2013-08-02 17:23:00,
2013-08-02 12:28:00,92.1,70.8,29.91,South,178,3.5,3.5,50,0.00,CLR,,0.00,WeatherDisplay:10.37,2013-08-02 17:28:00,
2013-08-02 12:33:00,92.7,70.7,29.91,South,174,2.3,2.3,49,0.00,CLR,,0.00,WeatherDisplay:10.37,2013-08-02 17:33:00,
2013-08-02 12:38:00,92.8,70.2,29.91,SE,127,3.0,3.0,48,0.00,CLR,,0.00,WeatherDisplay:10.37,2013-08-02 17:38:00,
2013-08-02 12:43:00,92.8,70.8,29.91,South,170,3.0,3.0,49,0.00,CLR,,0.00,WeatherDisplay:10.37,2013-08-02 17:43:00,
2013-08-02 12:48:00,93.2,71.2,29.91,East,86,3.5,3.5,49,0.00,CLR,,0.00,WeatherDisplay:10.37,2013-08-02 17:48:00,
2013-08-02 12:53:00,93.4,70.2,29.90,SE,139,8.1,8.1,47,0.00,CLR,,0.00,WeatherDisplay:10.37,2013-08-02 17:53:00,
2013-08-02 12:58:00,93.9,71.2,29.90,SSW,194,3.5,3.5,48,0.00,CLR,,0.00,WeatherDisplay:10.37,2013-08-02 17:58:00,
2013-08-02 13:03:00,94.4,71.1,29.90,WSW,250,4.6,4.6,47,0.00,CLR,,0.00,WeatherDisplay:10.37,2013-08-02 18:03:00,
2013-08-02 13:08:00,94.4,70.4,29.90,SE,129,2.3,2.3,46,0.00,CLR,,0.00,WeatherDisplay:10.37,2013-08-02 18:08:00,
2013-08-02 13:13:00,94.5,69.9,29.90,SW,236,6.9,6.9,45,0.00,CLR,,0.00,WeatherDisplay:10.37,2013-08-02 18:13:00,
2013-08-02 13:18:00,94.5,69.9,29.90,South,183,6.0,6.0,45,0.00,CLR,,0.00,WeatherDisplay:10.37,2013-08-02 18:18:00,
2013-08-02 13:23:00,94.4,69.8,29.90,SE,138,3.5,3.5,45,0.00,CLR,,0.00,WeatherDisplay:10.37,2013-08-02 18:23:00,
2013-08-02 13:28:00,94.6,70.0,29.90,West,264,5.8,5.8,45,0.00,CLR,,0.00,WeatherDisplay:10.37,2013-08-02 18:28:00,
2013-08-02 13:33:00,94.8,70.1,29.89,South,182,3.5,3.5,45,0.00,CLR,,0.00,WeatherDisplay:10.37,2013-08-02 18:33:00,
2013-08-02 13:38:00,95.2,69.8,29.89,SSE,167,2.3,2.3,44,0.00,CLR,,0.00,WeatherDisplay:10.37,2013-08-02 18:38:00,
2013-08-02 13:43:00,95.6,70.9,29.89,NE,51,2.3,2.3,45,0.00,CLR,,0.00,WeatherDisplay:10.37,2013-08-02 18:43:00,
2013-08-02 13:48:00,96.0,69.9,29.89,WNW,284,2.3,2.3,43,0.00,CLR,,0.00,WeatherDisplay:10.37,2013-08-02 18:48:00,
2013-08-02 13:53:00,96.4,69.6,29.89,SW,232,3.0,3.0,42,0.00,CLR,,0.00,WeatherDisplay:10.37,2013-08-02 18:53:00,
2013-08-02 13:58:00,96.7,69.1,29.88,South,170,1.2,1.2,41,0.00,CLR,,0.00,WeatherDisplay:10.37,2013-08-02 18:58:00,
2013-08-02 14:03:00,96.9,69.3,29.88,SSW,207,4.6,4.6,41,0.00,CLR,,0.00,WeatherDisplay:10.37,2013-08-02 19:03:00,
2013-08-02 14:08:00,96.7,69.1,29.88,SSE,159,1.2,1.7,41,0.00,CLR,,0.00,WeatherDisplay:10.37,2013-08-02 19:08:00,
2013-08-02 14:13:00,96.9,69.3,29.88,SE,140,3.5,3.5,41,0.00,CLR,,0.00,WeatherDisplay:10.37,2013-08-02 19:13:00,
2013-08-02 14:18:00,97.3,68.2,29.88,ESE,107,3.5,3.5,39,0.00,CLR,,0.00,WeatherDisplay:10.37,2013-08-02 19:18:00,
2013-08-02 14:23:00,97.4,69.0,29.88,South,190,2.3,2.3,40,0.00,CLR,,0.00,WeatherDisplay:10.37,2013-08-02 19:23:00,
2013-08-02 14:28:00,97.5,69.1,29.87,ENE,67,2.3,2.3,40,0.00,CLR,,0.00,WeatherDisplay:10.37,2013-08-02 19:28:00,
2013-08-02 14:33:00,98.0,67.3,29.87,WSW,248,3.5,3.5,37,0.00,CLR,,0.00,WeatherDisplay:10.37,2013-08-02 19:33:00,
2013-08-02 14:38:00,98.3,67.6,29.87,SSE,167,6.9,6.9,37,0.00,CLR,,0.00,WeatherDisplay:10.37,2013-08-02 19:38:00,
2013-08-02 14:43:00,98.3,67.6,29.87,SE,146,8.1,8.1,37,0.00,CLR,,0.00,WeatherDisplay:10.37,2013-08-02 19:43:00,
2013-08-02 14:48:00,98.2,66.7,29.86,SSW,194,4.0,4.0,36,0.00,CLR,,0.00,WeatherDisplay:10.37,2013-08-02 19:48:00,
2013-08-02 14:53:00,98.2,67.5,29.86,WNW,295,5.0,5.0,37,0.00,CLR,,0.00,WeatherDisplay:10.37,2013-08-02 19:53:00,
2013-08-02 14:58:00,98.4,66.9,29.86,SSE,155,4.6,4.6,36,0.00,CLR,,0.00,WeatherDisplay:10.37,2013-08-02 19:58:00,
2013-08-02 15:03:00,98.4,66.0,29.86,ESE,105,3.5,3.5,35,0.00,CLR,,0.00,WeatherDisplay:10.37,2013-08-02 20:03:00,
2013-08-02 15:08:00,98.5,67.7,29.86,West,275,3.5,3.6,37,0.00,CLR,,0.00,WeatherDisplay:10.37,2013-08-02 20:08:00,
2013-08-02 15:13:00,99.1,67.5,29.85,SW,220,4.0,4.0,36,0.00,CLR,,0.00,WeatherDisplay:10.37,2013-08-02 20:13:00,
2013-08-02 15:18:00,99.2,66.7,29.85,SSW,211,3.0,3.0,35,0.00,CLR,,0.00,WeatherDisplay:10.37,2013-08-02 20:18:00,
2013-08-02 15:37:00,98.7,67.1,29.84,East,93,2.3,2.3,36,0.00,CLR,,0.00,WeatherDisplay:10.37,2013-08-02 20:37:00,
2013-08-02 15:42:00,98.7,67.9,29.84,SSW,196,5.0,5.0,37,0.00,CLR,,0.00,WeatherDisplay:10.37,2013-08-02 20:42:00,
2013-08-02 15:47:00,98.5,67.7,29.84,SW,217,5.8,5.8,37,0.00,CLR,,0.00,WeatherDisplay:10.37,2013-08-02 20:47:00,
2013-08-02 15:52:00,98.5,67.7,29.84,South,189,6.9,6.9,37,0.00,CLR,,0.00,WeatherDisplay:10.37,2013-08-02 20:52:00,
2013-08-02 15:57:00,98.6,67.8,29.83,SSE,167,3.5,3.5,37,0.00,CLR,,0.00,WeatherDisplay:10.37,2013-08-02 20:57:00,
2013-08-02 16:02:00,98.7,67.9,29.83,SE,134,4.6,4.6,37,0.00,CLR,,0.00,WeatherDisplay:10.37,2013-08-02 21:02:00,
2013-08-02 16:07:00,98.9,67.3,29.83,South,176,6.9,6.9,36,0.00,CLR,,0.00,WeatherDisplay:10.37,2013-08-02 21:07:00,
2013-08-02 16:12:00,99.1,68.3,29.83,SSW,192,2.3,0.0,37,0.00,CLR,,0.00,WeatherDisplay:10.37,2013-08-02 21:12:00,
2013-08-02 16:17:00,99.3,66.8,29.82,WNW,297,3.5,3.5,35,0.00,CLR,,0.00,WeatherDisplay:10.37,2013-08-02 21:17:00,
2013-08-02 16:22:00,99.4,66.1,29.82,East,82,3.5,3.5,34,0.00,CLR,,0.00,WeatherDisplay:10.37,2013-08-02 21:22:00,
2013-08-02 16:27:00,99.4,66.1,29.82,SE,134,2.3,2.3,34,0.00,CLR,,0.00,WeatherDisplay:10.37,2013-08-02 21:27:00,
2013-08-02 16:32:00,99.5,67.0,29.82,ESE,122,2.0,2.0,35,0.00,CLR,,0.00,WeatherDisplay:10.37,2013-08-02 21:32:00,
2013-08-02 16:37:00,99.4,66.9,29.82,SE,138,2.3,2.3,35,0.00,CLR,,0.00,WeatherDisplay:10.37,2013-08-02 21:37:00,
2013-08-02 16:42:00,99.3,66.0,29.82,SSE,167,2.0,2.0,34,0.00,CLR,,0.00,WeatherDisplay:10.37,2013-08-02 21:42:00,
2013-08-02 16:47:00,99.2,65.9,29.82,SSE,166,4.0,4.0,34,0.00,CLR,,0.00,WeatherDisplay:10.37,2013-08-02 21:47:00,
2013-08-02 16:52:00,99.3,66.0,29.82,SSW,206,3.5,3.5,34,0.00,CLR,,0.00,WeatherDisplay:10.37,2013-08-02 21:52:00,
2013-08-02 16:57:00,99.3,66.0,29.82,ENE,74,1.2,1.2,34,0.00,CLR,,0.00,WeatherDisplay:10.37,2013-08-02 21:57:00,
2013-08-02 17:02:00,99.3,66.0,29.81,SW,215,5.8,5.8,34,0.00,CLR,,0.00,WeatherDisplay:10.37,2013-08-02 22:02:00,
2013-08-02 17:22:00,98.9,65.6,29.81,South,190,4.0,4.0,34,0.00,CLR,,0.00,WeatherDisplay:10.37,2013-08-02 22:22:00,
2013-08-02 17:27:00,99.0,64.9,29.81,SW,228,5.0,5.0,33,0.00,CLR,,0.00,WeatherDisplay:10.37,2013-08-02 22:27:00,
2013-08-02 17:32:00,99.0,65.7,29.81,SE,132,5.0,5.0,34,0.00,CLR,,0.00,WeatherDisplay:10.37,2013-08-02 22:32:00,
2013-08-02 17:37:00,98.8,65.6,29.81,SSE,151,9.2,9.2,34,0.00,CLR,,0.00,WeatherDisplay:10.37,2013-08-02 22:37:00,
2013-08-02 17:42:00,98.6,65.4,29.81,South,184,5.8,5.8,34,0.00,CLR,,0.00,WeatherDisplay:10.37,2013-08-02 22:42:00,
2013-08-02 17:47:00,98.5,66.1,29.81,East,98,4.6,4.6,35,0.00,CLR,,0.00,WeatherDisplay:10.37,2013-08-02 22:47:00,
2013-08-02 17:52:00,98.5,65.3,29.81,SW,217,2.3,2.3,34,0.00,CLR,,0.00,WeatherDisplay:10.37,2013-08-02 22:52:00,
2013-08-02 17:57:00,98.4,66.0,29.81,South,175,3.5,3.5,35,0.00,CLR,,0.00,WeatherDisplay:10.37,2013-08-02 22:57:00,
2013-08-02 18:02:00,98.3,65.9,29.81,South,170,5.8,5.8,35,0.00,CLR,,0.00,WeatherDisplay:10.37,2013-08-02 23:02:00,
2013-08-02 18:07:00,98.0,65.7,29.81,SE,140,5.8,5.8,35,0.00,CLR,,0.00,WeatherDisplay:10.37,2013-08-02 23:07:00,
2013-08-02 18:12:00,97.9,65.6,29.81,ESE,103,8.0,8.0,35,0.00,CLR,,0.00,WeatherDisplay:10.37,2013-08-02 23:12:00,
2013-08-02 18:17:00,97.7,65.4,29.81,SSE,161,3.5,3.5,35,0.00,CLR,,0.00,WeatherDisplay:10.37,2013-08-02 23:17:00,
2013-08-02 18:22:00,97.5,65.2,29.81,ENE,74,3.5,3.5,35,0.00,CLR,,0.00,WeatherDisplay:10.37,2013-08-02 23:22:00,
2013-08-02 18:27:00,97.2,65.8,29.81,ENE,77,6.9,6.9,36,0.00,CLR,,0.00,WeatherDisplay:10.37,2013-08-02 23:27:00,
2013-08-02 18:32:00,97.1,65.7,29.81,SSE,165,3.0,3.0,36,0.00,CLR,,0.00,WeatherDisplay:10.37,2013-08-02 23:32:00,
2013-08-02 18:37:00,96.9,65.5,29.81,SE,130,1.2,1.2,36,0.00,CLR,,0.00,WeatherDisplay:10.37,2013-08-02 23:37:00,
2013-08-02 18:42:00,96.8,66.2,29.81,SSE,155,3.5,3.5,37,0.00,CLR,,0.00,WeatherDisplay:10.37,2013-08-02 23:42:00,
2013-08-02 18:47:00,96.5,64.4,29.81,ESE,121,3.5,3.5,35,0.00,CLR,,0.00,WeatherDisplay:10.37,2013-08-02 23:47:00,
2013-08-02 18:52:00,96.3,65.0,29.82,SE,140,1.2,1.2,36,0.00,CLR,,0.00,WeatherDisplay:10.37,2013-08-02 23:52:00,
2013-08-02 18:57:00,96.2,64.9,29.82,SE,134,1.2,1.2,36,0.00,CLR,,0.00,WeatherDisplay:10.37,2013-08-02 23:57:00,
2013-08-02 19:02:00,96.0,64.7,29.82,SSE,153,3.5,3.5,36,0.00,CLR,,0.00,WeatherDisplay:10.37,2013-08-03 00:02:00,
2013-08-02 19:07:00,95.9,64.7,29.82,South,184,5.8,5.8,36,0.00,CLR,,0.00,WeatherDisplay:10.37,2013-08-03 00:07:00,
2013-08-02 19:12:00,95.8,65.4,29.82,ESE,111,3.5,3.5,37,0.00,CLR,,0.00,WeatherDisplay:10.37,2013-08-03 00:12:00,
2013-08-02 19:17:00,95.7,66.0,29.82,South,169,3.5,3.5,38,0.00,CLR,,0.00,WeatherDisplay:10.37,2013-08-03 00:17:00,
2013-08-02 19:22:00,95.5,65.9,29.82,East,96,2.3,2.3,38,0.00,CLR,,0.00,WeatherDisplay:10.37,2013-08-03 00:22:00,
2013-08-02 19:27:00,95.3,66.4,29.82,SSW,207,3.5,3.5,39,0.00,CLR,,0.00,WeatherDisplay:10.37,2013-08-03 00:27:00,
2013-08-02 19:32:00,95.1,65.5,29.82,SSE,165,4.6,4.6,38,0.00,CLR,,0.00,WeatherDisplay:10.37,2013-08-03 00:32:00,
2013-08-02 19:37:00,94.9,65.3,29.82,SSE,164,3.5,3.5,38,0.00,CLR,,0.00,WeatherDisplay:10.37,2013-08-03 00:37:00,
2013-08-02 19:42:00,94.7,65.9,29.82,SE,140,3.5,3.5,39,0.00,CLR,,0.00,WeatherDisplay:10.37,2013-08-03 00:42:00,
2013-08-02 19:47:00,94.6,66.5,29.82,SE,127,3.5,3.5,40,0.00,CLR,,0.00,WeatherDisplay:10.37,2013-08-03 00:47:00,
2013-08-02 19:52:00,94.4,66.4,29.82,SSE,163,2.3,2.3,40,0.00,CLR,,0.00,WeatherDisplay:10.37,2013-08-03 00:52:00,
2013-08-02 19:57:00,94.2,66.9,29.83,South,176,5.8,5.8,41,0.00,CLR,,0.00,WeatherDisplay:10.37,2013-08-03 00:57:00,
2013-08-02 20:02:00,93.8,66.5,29.83,SSE,167,4.6,4.6,41,0.00,CLR,,0.00,WeatherDisplay:10.37,2013-08-03 01:02:00,
2013-08-02 20:07:00,93.6,66.4,29.83,SSW,196,2.3,2.3,41,0.00,CLR,,0.00,WeatherDisplay:10.37,2013-08-03 01:07:00,
2013-08-02 20:12:00,93.4,66.9,29.83,SSW,194,3.5,3.5,42,0.00,CLR,,0.00,WeatherDisplay:10.37,2013-08-03 01:12:00,
2013-08-02 20:17:00,93.2,66.7,29.83,South,182,2.3,2.3,42,0.00,CLR,,0.00,WeatherDisplay:10.37,2013-08-03 01:17:00,
2013-08-02 20:22:00,93.0,66.5,29.83,South,170,3.5,0.0,42,0.00,CLR,,0.00,WeatherDisplay:10.37,2013-08-03 01:22:00,
2013-08-02 20:27:00,92.9,66.4,29.83,SSE,151,1.2,0.0,42,0.00,CLR,,0.00,WeatherDisplay:10.37,2013-08-03 01:27:00,
2013-08-02 20:32:00,92.6,66.8,29.83,SSE,151,1.2,1.2,43,0.00,CLR,,0.00,WeatherDisplay:10.37,2013-08-03 01:32:00,
2013-08-02 20:37:00,92.2,66.5,29.83,SE,133,0.0,0.1,43,0.00,CLR,,0.00,WeatherDisplay:10.37,2013-08-03 01:37:00,
2013-08-02 20:42:00,91.9,66.2,29.83,SE,133,0.0,0.0,43,0.00,CLR,,0.00,WeatherDisplay:10.37,2013-08-03 01:42:00,
2013-08-02 20:47:00,91.5,66.5,29.83,SE,133,2.3,0.0,44,0.00,CLR,,0.00,WeatherDisplay:10.37,2013-08-03 01:47:00,
2013-08-02 20:52:00,91.1,66.8,29.84,SE,133,0.0,0.0,45,0.00,CLR,,0.00,WeatherDisplay:10.37,2013-08-03 01:52:00,
2013-08-02 20:57:00,90.7,67.1,29.84,SSE,164,1.2,1.2,46,0.00,CLR,,0.00,WeatherDisplay:10.37,2013-08-03 01:57:00,
2013-08-02 21:02:00,90.2,67.9,29.84,SE,136,3.5,3.5,48,0.00,CLR,,0.00,WeatherDisplay:10.37,2013-08-03 02:02:00,
2013-08-02 21:07:00,90.0,68.3,29.84,ENE,71,2.3,2.3,49,0.00,CLR,,0.00,WeatherDisplay:10.37,2013-08-03 02:07:00,
2013-08-02 21:12:00,89.9,68.2,29.84,SSW,194,6.9,6.9,49,0.00,CLR,,0.00,WeatherDisplay:10.37,2013-08-03 02:12:00,
2013-08-02 21:17:00,89.8,68.7,29.85,SE,141,6.0,6.0,50,0.00,CLR,,0.00,WeatherDisplay:10.37,2013-08-03 02:17:00,
2013-08-02 21:22:00,89.8,68.7,29.85,SE,140,5.8,5.8,50,0.00,CLR,,0.00,WeatherDisplay:10.37,2013-08-03 02:22:00,
2013-08-02 21:27:00,89.7,68.6,29.85,SSW,203,3.5,3.5,50,0.00,CLR,,0.00,WeatherDisplay:10.37,2013-08-03 02:27:00,
2013-08-02 21:32:00,89.5,68.4,29.85,SE,125,4.6,4.6,50,0.00,CLR,,0.00,WeatherDisplay:10.37,2013-08-03 02:32:00,
2013-08-02 21:37:00,89.3,68.8,29.85,SE,139,8.1,8.1,51,0.00,CLR,,0.00,WeatherDisplay:10.37,2013-08-03 02:37:00,
2013-08-02 21:42:00,89.1,68.6,29.85,SE,138,5.8,5.8,51,0.00,CLR,,0.00,WeatherDisplay:10.37,2013-08-03 02:42:00,
2013-08-02 21:47:00,88.8,68.3,29.86,South,181,11.5,11.5,51,0.00,CLR,,0.00,WeatherDisplay:10.37,2013-08-03 02:47:00,
2013-08-02 21:52:00,88.5,68.6,29.86,South,183,5.0,5.0,52,0.00,CLR,,0.00,WeatherDisplay:10.37,2013-08-03 02:52:00,
2013-08-02 21:57:00,88.2,68.4,29.87,ESE,119,8.1,8.1,52,0.00,CLR,,0.00,WeatherDisplay:10.37,2013-08-03 02:57:00,
2013-08-02 22:02:00,87.9,68.6,29.87,SSE,165,8.1,8.1,53,0.00,CLR,,0.00,WeatherDisplay:10.37,2013-08-03 03:02:00,
2013-08-02 22:07:00,87.6,68.9,29.87,ESE,119,10.4,10.4,54,0.00,CLR,,0.00,WeatherDisplay:10.37,2013-08-03 03:07:00,
2013-08-02 22:12:00,87.3,68.6,29.88,South,170,4.6,4.6,54,0.00,CLR,,0.00,WeatherDisplay:10.37,2013-08-03 03:12:00,
2013-08-02 22:17:00,87.1,68.4,29.88,SE,127,8.1,8.1,54,0.00,CLR,,0.00,WeatherDisplay:10.37,2013-08-03 03:17:00,
2013-08-02 22:22:00,86.8,68.7,29.88,ESE,116,5.8,5.8,55,0.00,CLR,,0.00,WeatherDisplay:10.37,2013-08-03 03:22:00,
2013-08-02 22:27:00,86.5,68.4,29.88,SE,140,4.6,4.6,55,0.00,CLR,,0.00,WeatherDisplay:10.37,2013-08-03 03:27:00,
2013-08-02 22:32:00,86.4,68.3,29.88,South,180,5.0,5.0,55,0.00,CLR,,0.00,WeatherDisplay:10.37,2013-08-03 03:32:00,
2013-08-02 22:37:00,86.2,68.7,29.88,SSE,165,3.5,3.5,56,0.00,CLR,,0.00,WeatherDisplay:10.37,2013-08-03 03:37:00,
2013-08-02 22:42:00,86.0,68.5,29.89,SSE,148,5.8,5.8,56,0.00,CLR,,0.00,WeatherDisplay:10.37,2013-08-03 03:42:00,
2013-08-02 22:47:00,85.8,68.8,29.89,SSW,193,3.5,3.5,57,0.00,CLR,,0.00,WeatherDisplay:10.37,2013-08-03 03:47:00,
2013-08-02 22:52:00,85.8,68.8,29.89,SE,125,6.0,6.0,57,0.00,CLR,,0.00,WeatherDisplay:10.37,2013-08-03 03:52:00,
2013-08-02 22:57:00,85.6,69.1,29.89,SE,132,1.2,1.4,58,0.00,CLR,,0.00,WeatherDisplay:10.37,2013-08-03 03:57:00,
2013-08-02 23:01:00,85.5,69.5,29.89,SE,144,4.6,4.6,59,0.00,CLR,,0.00,WeatherDisplay:10.37,2013-08-03 04:01:00,
2013-08-02 23:02:00,85.5,69.5,29.89,SE,141,4.6,4.6,59,0.00,CLR,,0.00,WeatherDisplay:10.37,2013-08-03 04:02:00,
2013-08-02 23:07:00,85.2,69.7,29.90,South,180,6.9,6.9,60,0.00,CLR,,0.00,WeatherDisplay:10.37,2013-08-03 04:07:00,
2013-08-02 23:12:00,85.1,70.1,29.90,SSE,150,3.5,3.5,61,0.00,CLR,,0.00,WeatherDisplay:10.37,2013-08-03 04:12:00,
2013-08-02 23:17:00,84.9,69.9,29.90,SE,142,3.5,3.5,61,0.00,CLR,,0.00,WeatherDisplay:10.37,2013-08-03 04:17:00,
2013-08-02 23:22:00,84.8,69.9,29.90,SE,142,7.0,7.0,61,0.00,CLR,,0.00,WeatherDisplay:10.37,2013-08-03 04:22:00,
2013-08-02 23:27:00,84.7,70.2,29.91,SSE,163,3.5,3.5,62,0.00,CLR,,0.00,WeatherDisplay:10.37,2013-08-03 04:27:00,
2013-08-02 23:32:00,84.5,70.0,29.91,SE,138,1.2,0.0,62,0.00,CLR,,0.00,WeatherDisplay:10.37,2013-08-03 04:32:00,
2013-08-02 23:37:00,84.3,70.3,29.91,SE,132,2.3,2.3,63,0.00,CLR,,0.00,WeatherDisplay:10.37,2013-08-03 04:37:00,
2013-08-02 23:42:00,84.1,70.6,29.91,ESE,102,2.3,2.3,64,0.00,CLR,,0.00,WeatherDisplay:10.37,2013-08-03 04:42:00,
2013-08-02 23:47:00,83.9,70.4,29.91,SE,138,1.2,1.2,64,0.00,CLR,,0.00,WeatherDisplay:10.37,2013-08-03 04:47:00,
2013-08-02 23:52:00,83.7,70.7,29.91,South,174,3.5,3.5,65,0.00,CLR,,0.00,WeatherDisplay:10.37,2013-08-03 04:52:00,
2013-08-02 23:57:00,83.6,70.6,29.91,SSE,155,5.8,5.8,65,0.00,CLR,,0.00,WeatherDisplay:10.37,2013-08-03 04:57:00,